Weather History for Canon City Fremont County, CO

Change the Weather History Date:

Sunday, February 16, 2014

  Actual Average (KPUB) Record (KPUB)
Temperature  
Mean Temperature 48 °F 34 °F  
Max Temperature 66 °F 51 °F 73 °F (1970)
Min Temperature 30 °F 17 °F -18 °F (1895)
Degree Days  
Heating Degree Days 17 31  
Month to date heating degree days 522  
Since 1 July heating degree days 3954  
Cooling Degree Days 0 0  
Month to date cooling degree days 0  
Year to date cooling degree days 0  
Moisture  
Dew Point 28 °F    
Average Humidity 53    
Maximum Humidity 100    
Minimum Humidity 18    
Precipitation  
Precipitation 0.00 in 0.01 in 0.26 in (1938)
Month to date precipitation 0.14  
Year to date precipitation 0.49  
Snow  
Snow 0.00 in 0.10 in 5.10 in (1988)
Month to date snowfall 2.3  
Since 1 July snowfall 20.3  
Snow Depth -    
Sea Level Pressure  
Sea Level Pressure 29.89 in    
Wind  
Wind Speed 8 mph (West)    
Max Wind Speed 36 mph    
Max Gust Speed 44 mph    
Visibility 10 miles    
Events      
T = Trace of Precipitation, MM = Missing Value Source: NWS Daily Summary

Daily Weather History Graph

Daily Weather History Graph

Search for Another Location

Airport:

Trip Planner

Search our weather history database for the weather conditions in past years. The results will help you decide how hot, cold, wet, or windy it might be!

Date:

Astronomy

Feb. 16, 2014 Rise Set
Actual Time 6:49 AM MST 5:39 PM MST
Civil Twilight 6:22 AM MST 6:06 PM MST
Nautical Twilight 5:51 AM MST 6:37 PM MST
Astronomical Twilight 5:21 AM MST 7:08 PM MST
Moon 7:36 PM MST (2/16) 7:22 AM MST (2/16)
Length of Visible Light 11h 44m
Length of Day
10h 50m
Full, 97% of the Moon is Illuminated
Feb 16
Full
Feb 22
Last Quarter
Mar 1
New
Mar 8
First Quarter
Mar 16
Full

Hourly Weather History & Observations

Time (MST) Temp. Windchill Dew Point Humidity Pressure Visibility Wind Dir Wind Speed Gust Speed Precip Events Conditions
12:15 AM 33.8 °F - 32.0 °F 93% 30.08 in 10.0 mi Calm Calm - N/A   Clear
12:35 AM 35.6 °F - 32.0 °F 87% 30.08 in 10.0 mi Calm Calm - N/A   Clear
12:55 AM 33.8 °F - 32.0 °F 93% 30.07 in 10.0 mi Calm Calm - N/A   Clear
1:15 AM 33.8 °F - 32.0 °F 93% 30.06 in 10.0 mi Calm Calm - N/A   Clear
1:35 AM 33.8 °F 28.6 °F 32.0 °F 93% 30.06 in 10.0 mi North 5.8 mph - N/A   Clear
1:55 AM 33.8 °F 29.6 °F 32.0 °F 93% 30.04 in 10.0 mi North 4.6 mph - N/A   Clear
2:15 AM 33.8 °F 29.6 °F 32.0 °F 93% 30.03 in 10.0 mi North 4.6 mph - N/A   Clear
2:35 AM 33.8 °F 29.6 °F 32.0 °F 93% 30.02 in 10.0 mi North 4.6 mph - N/A   Clear
2:55 AM 33.8 °F - 32.0 °F 93% 30.00 in 10.0 mi Calm Calm - N/A   Clear
3:15 AM 32.0 °F 27.5 °F 32.0 °F 100% 29.99 in 10.0 mi West 4.6 mph - N/A   Clear
3:35 AM 32.0 °F - 32.0 °F 100% 29.96 in 10.0 mi Calm Calm - N/A   Clear
3:55 AM 32.0 °F 28.7 °F 30.2 °F 93% 29.96 in 10.0 mi WSW 3.5 mph - N/A   Clear
4:15 AM 33.8 °F - 32.0 °F 93% 29.95 in 10.0 mi Calm Calm - N/A   Clear
4:35 AM 32.0 °F - 30.2 °F 93% 29.94 in 10.0 mi Calm Calm - N/A   Clear
4:55 AM 32.0 °F - 30.2 °F 93% 29.95 in 10.0 mi Calm Calm - N/A   Clear
5:15 AM 32.0 °F - 30.2 °F 93% 29.93 in 10.0 mi Calm Calm - N/A   Clear
5:35 AM 32.0 °F 27.5 °F 32.0 °F 100% 29.93 in 10.0 mi NNE 4.6 mph - N/A   Clear
5:55 AM 32.0 °F - 32.0 °F 100% 29.93 in 10.0 mi Calm Calm - N/A   Clear
6:15 AM 30.2 °F 25.4 °F 30.2 °F 100% 29.93 in 10.0 mi West 4.6 mph - N/A   Clear
6:25 AM 30.2 °F 26.7 °F 30.2 °F 100% 29.93 in 10.0 mi WNW 3.5 mph - N/A   Clear
7:35 AM 32.0 °F 26.4 °F 30.2 °F 93% 29.91 in 10.0 mi WNW 5.8 mph - N/A   Clear
7:55 AM 32.0 °F - 32.0 °F 100% 29.91 in 10.0 mi Calm Calm - N/A   Clear
8:15 AM 33.8 °F 29.6 °F 32.0 °F 93% 29.89 in 10.0 mi West 4.6 mph - N/A   Clear
8:35 AM 35.6 °F 32.8 °F 32.0 °F 87% 29.89 in 10.0 mi WSW 3.5 mph - N/A   Clear
8:55 AM 37.4 °F - 33.8 °F 87% 29.89 in 10.0 mi Calm Calm - N/A   Clear
9:15 AM 50.0 °F - 32.0 °F 50% 29.90 in 10.0 mi WSW 6.9 mph - N/A   Clear
9:35 AM 53.6 °F - 30.2 °F 41% 29.89 in 10.0 mi West 6.9 mph - N/A   Clear
9:55 AM 55.4 °F - 30.2 °F 38% 29.89 in 10.0 mi SW 3.5 mph - N/A   Clear
10:15 AM 60.8 °F - 24.8 °F 25% 29.89 in 10.0 mi West 6.9 mph - N/A   Clear
10:35 AM 62.6 °F - 23.0 °F 22% 29.87 in 10.0 mi West 18.4 mph 24.2 mph N/A   Clear
10:55 AM 64.4 °F - 19.4 °F 18% 29.86 in 10.0 mi West 23.0 mph 33.4 mph N/A   Clear
11:15 AM 64.4 °F - 21.2 °F 19% 29.86 in 10.0 mi West 25.3 mph 36.8 mph N/A   Clear
11:35 AM 64.4 °F - 19.4 °F 18% 29.85 in 10.0 mi West 25.3 mph 36.8 mph N/A   Clear
11:55 AM 66.2 °F - 21.2 °F 18% 29.84 in 10.0 mi West 35.7 mph 43.7 mph N/A   Clear
12:15 PM 66.2 °F - 23.0 °F 19% 29.83 in 10.0 mi WSW 31.1 mph 41.4 mph N/A   Clear
12:35 PM 66.2 °F - 23.0 °F 19% 29.82 in 10.0 mi West 26.5 mph 33.4 mph N/A   Clear
12:55 PM 66.2 °F - 23.0 °F 19% 29.82 in 10.0 mi West 24.2 mph 32.2 mph N/A   Clear
1:15 PM 66.2 °F - 24.8 °F 21% 29.81 in 10.0 mi West 26.5 mph 34.5 mph N/A   Clear
1:35 PM 66.2 °F - 24.8 °F 21% 29.80 in 10.0 mi West 19.6 mph 31.1 mph N/A   Clear
1:55 PM 64.4 °F - 24.8 °F 22% 29.79 in 10.0 mi West 15.0 mph 26.5 mph N/A   Clear
2:15 PM 66.2 °F - 26.6 °F 23% 29.80 in 10.0 mi West 20.7 mph 31.1 mph N/A   Clear
2:35 PM 64.4 °F - 28.4 °F 26% 29.80 in 10.0 mi West 17.3 mph 28.8 mph N/A   Scattered Clouds
2:55 PM 64.4 °F - 26.6 °F 24% 29.80 in 10.0 mi West 21.9 mph 31.1 mph N/A   Mostly Cloudy
3:15 PM 64.4 °F - 26.6 °F 24% 29.80 in 10.0 mi WSW 20.7 mph 28.8 mph N/A   Scattered Clouds
3:35 PM 64.4 °F - 28.4 °F 26% 29.79 in 10.0 mi WSW 16.1 mph 25.3 mph N/A   Clear
3:55 PM 64.4 °F - 28.4 °F 26% 29.79 in 10.0 mi West 17.3 mph 24.2 mph N/A   Clear
4:15 PM 62.6 °F - 26.6 °F 26% 29.78 in 10.0 mi West 15.0 mph - N/A   Clear
4:35 PM 62.6 °F - 28.4 °F 27% 29.77 in 10.0 mi West 10.4 mph - N/A   Clear
4:55 PM 62.6 °F - 28.4 °F 27% 29.77 in 10.0 mi WNW 11.5 mph - N/A   Scattered Clouds
5:15 PM 60.8 °F - 28.4 °F 29% 29.78 in 10.0 mi West 8.1 mph - N/A   Scattered Clouds
5:35 PM 57.2 °F - 28.4 °F 33% 29.79 in 10.0 mi West 10.4 mph - N/A   Clear
5:55 PM 55.4 °F - 28.4 °F 36% 29.80 in 10.0 mi West 8.1 mph - N/A   Clear
6:15 PM 51.8 °F - 28.4 °F 41% 29.80 in 10.0 mi WNW 9.2 mph - N/A   Clear
6:35 PM 51.8 °F - 28.4 °F 41% 29.81 in 10.0 mi WNW 6.9 mph - N/A   Clear
6:55 PM 48.2 °F - 28.4 °F 46% 29.83 in 10.0 mi West 5.8 mph - N/A   Scattered Clouds
7:15 PM 50.0 °F - 26.6 °F 40% 29.84 in 10.0 mi West 16.1 mph 27.6 mph N/A   Scattered Clouds
7:35 PM 57.2 °F - 26.6 °F 31% 29.85 in 10.0 mi West 32.2 mph 43.7 mph N/A   Clear
7:55 PM 55.4 °F - 28.4 °F 36% 29.86 in 10.0 mi West 13.8 mph 33.4 mph N/A   Clear
8:15 PM 53.6 °F - 28.4 °F 38% 29.87 in 10.0 mi West 15.0 mph 18.4 mph N/A   Clear
8:35 PM 51.8 °F - 30.2 °F 44% 29.86 in 10.0 mi West 10.4 mph - N/A   Clear
8:55 PM 50.0 °F - 30.2 °F 47% 29.86 in 10.0 mi West 9.2 mph - N/A   Clear
9:15 PM 48.2 °F - 30.2 °F 50% 29.87 in 10.0 mi West 15.0 mph 20.7 mph N/A   Clear
9:35 PM 53.6 °F - 26.6 °F 35% 29.87 in 10.0 mi West 10.4 mph 19.6 mph N/A   Clear
9:55 PM 50.0 °F - 28.4 °F 43% 29.89 in 10.0 mi NW 9.2 mph - N/A   Clear
10:15 PM 51.8 °F - 23.0 °F 33% 29.91 in 10.0 mi WNW 11.5 mph 24.2 mph N/A   Clear
10:35 PM 53.6 °F - 15.8 °F 22% 29.92 in 10.0 mi West 23.0 mph 39.1 mph N/A   Clear
10:55 PM 53.6 °F - 14.0 °F 21% 29.94 in 10.0 mi West 20.7 mph 32.2 mph N/A   Clear
11:15 PM 53.6 °F - 14.0 °F 21% 29.97 in 10.0 mi West 20.7 mph 24.2 mph N/A   Clear
11:35 PM 50.0 °F - 17.6 °F 28% 29.98 in 10.0 mi WNW 10.4 mph - N/A   Clear
11:55 PM 48.2 °F - 17.6 °F 30% 30.00 in 10.0 mi NW 12.7 mph - N/A   Clear